Location: Hilton Head Island
(32.2163°N, 80.7526°W)
Time: 20:35:26
(UTC-05:00)

Transit 4A - Visible Passes

Search period start: 06 February 2026 00:00
Search period end: 16 February 2026 00:00
Orbit: 866 x 976 km, 66.8° (Epoch: 6 February)

Date Brightness Start Highest point End Pass type
(mag) Time Alt. Az. Time Alt. Az. Time Alt. Az.
6 Feb 8.6 05:50:45 10° S 05:56:21 54° ESE 06:02:05 10° NE visible
7 Feb 7.8 05:59:15 10° SSW 06:05:02 85° ESE 06:10:57 10° NNE visible
8 Feb 10.5 04:25:06 10° SE 04:28:09 15° ESE 04:31:14 10° ENE visible
8 Feb 7.8 06:08:03 10° SW 06:13:46 62° WNW 06:19:38 10° NNE visible
9 Feb 9.8 04:32:07 10° SSE 04:36:38 24° ESE 04:41:14 10° NE visible
9 Feb 8.2 06:17:11 10° SW 06:22:37 40° WNW 06:28:10 10° N visible
10 Feb 9.0 04:41:06 16° S 04:45:12 38° ESE 04:50:36 10° NE visible
10 Feb 8.7 06:26:41 10° WSW 06:31:32 27° NW 06:36:29 10° N visible
11 Feb 8.2 04:51:54 40° S 04:53:49 61° ESE 04:59:38 10° NNE visible
11 Feb 9.2 06:36:39 10° W 06:40:33 18° NW 06:44:31 10° N visible
12 Feb 7.6 05:01:59 75° SW 05:02:31 86° WNW 05:08:28 10° NNE visible
13 Feb 10.5 03:28:07 13° ENE 03:28:07 13° ENE 03:29:09 10° ENE visible
13 Feb 7.9 05:11:40 55° NW 05:11:40 55° NW 05:17:07 10° NNE visible
14 Feb 10.3 03:37:32 16° ENE 03:37:32 16° ENE 03:38:55 10° NE visible
14 Feb 8.5 05:21:03 34° NW 05:21:03 34° NW 05:25:35 10° N visible
15 Feb 10.1 03:46:45 17° NE 03:46:45 17° NE 03:48:12 10° NE visible
15 Feb 9.1 05:30:15 23° NW 05:30:15 23° NW 05:33:52 10° N visible
